#timestamp,LO_Frequency,Hit,StdDev 
1617617595.0,286046965.2,P
1617617596.0,286046965.2,P
1617617615.8,286046963.4,P
1617617635.6,286046964.0,Y
1617617655.5,286046997.0,P
1617617675.3,286046997.8,N
1617617695.1,286046995.5,N
1617617715.9,286046995.5,N
1617617735.7,286046991.9,N
1617617755.6,286046990.1,N
1617617775.4,286046991.0,N
1617617795.2,286046992.9,N
1617617815.1,286046991.5,N
1617617816.0,286046991.5,N
1617617835.8,286046987.1,N
1617617855.6,286046985.7,N
1617617875.5,286046985.4,N
1617617895.3,286046985.7,N
1617617915.2,286046985.6,N
1617617935.9,286046985.4,N
1617617955.7,286046986.7,N
1617617975.6,286046985.0,N
1617617995.4,286046984.6,N
1617618015.2,286046984.5,N
1617618035.1,286046982.9,N
1617618036.0,286046982.9,N
1617618055.8,286046981.8,N
1617618075.7,286046980.8,N
1617618095.5,286046979.9,Y
1617618115.3,286046991.0,P
1617618135.2,286046989.2,P
1617618155.0,286046989.5,P
1617618155.9,286046989.5,Y
1617618175.7,286046997.0,P
1617618195.6,286046997.7,N
1617618215.4,286046997.0,N
1617618235.3,286046998.7,N
1617618255.1,286046999.6,N
1617618256.0,286046999.6,N
1617618275.8,286046997.7,N
1617618295.7,286046997.8,N
1617618315.5,286046997.4,N
1617618335.3,286046999.5,N
1617618355.2,286046994.9,N
1617618375.0,286046996.1,N
1617618375.9,286046996.1,N
1617618395.8,286046996.1,N
1617618415.6,286046994.6,N
1617618435.4,286046993.3,N
1617618455.3,286046994.7,N
1617618475.1,286046993.6,N
1617618495.9,286046991.8,Y
1617618515.7,286046997.6,P
1617618535.5,286046997.9,P
1617618555.4,286046995.5,P
1617618575.2,286046993.4,Y
1617618595.0,286046998.5,P
1617618595.9,286046998.5,N
1617618615.8,286047000.5,N
1617618635.6,286046998.2,N
1617618655.5,286046998.2,N
1617618675.3,286046997.2,N
1617618695.1,286046995.8,Y
1617618715.9,286046996.8,P
1617618735.7,286046999.4,N
1617618755.5,286046999.0,N
1617618775.4,286046999.2,N
1617618795.2,286046996.5,Y
1617618815.1,286046998.8,P
1617618816.0,286046998.8,P
1617618835.8,286046997.2,P
1617618855.6,286046997.2,Y
1617618875.5,286046999.0,P
1617618895.3,286046997.2,P
1617618915.2,286046999.5,N
1617618935.9,286046999.4,N
1617618955.7,286046997.7,N
1617618975.6,286046996.6,Y
1617618995.4,286046998.5,P
1617619015.2,286046999.4,P
1617619035.1,286046996.6,P
1617619036.0,286046996.6,Y
1617619055.8,286046996.5,P
1617619075.7,286046999.1,N
1617619095.5,286046999.0,N
1617619115.3,286046999.0,N
1617619135.2,286046999.6,N
1617619155.0,286046997.3,N
1617619155.9,286046997.3,N
1617619175.8,286046999.0,N
1617619195.6,286046997.0,Y
1617619215.4,286046998.7,P
1617619235.3,286046998.3,P
1617619255.1,286046998.5,P
1617619275.9,286047001.1,Y
1617619295.7,286047000.0,P
1617619315.5,286047001.5,N
1617619335.4,286047003.6,N
1617619355.2,286047002.5,N
1617619375.0,286047004.4,N
1617619375.9,286047004.4,N
1617619395.8,286047003.9,N
1617619415.6,286047002.4,N
1617619435.5,286047004.1,N
1617619455.3,286047001.7,N
1617619475.1,286047011.9,Y
1617619495.9,286046999.8,P
1617619515.7,286046998.1,N
1617619535.5,286046998.5,N
1617619555.4,286046998.4,N
1617619575.2,286046999.4,N
1617619595.1,286046997.1,N
1617619596.0,286046997.1,N
1617619615.8,286046997.1,N
1617619635.6,286046997.2,N
1617619655.5,286046996.7,N
1617619675.3,286046996.6,N
1617619695.2,286046997.7,N
1617619715.9,286046997.1,N
1617619735.7,286046995.4,Y
1617619755.6,286046997.9,P
1617619775.4,286046999.2,P
1617619795.2,286046998.5,N
1617619815.1,286046998.9,N
1617619816.0,286046998.9,N
1617619835.8,286046994.9,Y
1617619855.7,286046999.2,P
1617619875.5,286046997.5,P
1617619895.3,286046995.3,P
1617619915.2,286046994.9,Y
1617619935.0,286046998.1,P
1617619935.9,286046998.1,P
1617619955.8,286047000.8,P
1617619975.6,286046998.7,N
1617619995.4,286046998.5,N
1617620015.3,286047000.8,N
1617620035.1,286047002.7,N
1617620055.8,286047002.8,N
1617620075.7,286047000.3,N
1617620095.5,286047002.3,N
1617620115.4,286047000.2,N
1617620135.2,286047000.2,N
1617620155.0,286047000.0,N
1617620155.9,286047000.0,N
1617620175.8,286047000.2,N
1617620195.6,286047000.4,N
1617620215.4,286047001.2,N
1617620235.3,286046998.6,N
1617620255.1,286046999.3,N
1617620275.9,286046998.6,N
1617620295